Bowling Green, KY

8:28 AM CDT on April 30, 2017 (GMT -0500)
Bowling Green-Warren County Regional

Weather History for KBWG - June, 2012

Change the Weather History Date:

Thursday, June 28, 2012

  Actual Average Record
Temperature  
Mean Temperature 84 °F 78 °F  
Max Temperature 106 °F 89 °F 106 °F (1936)
Min Temperature 62 °F 67 °F 50 °F (1926)
Degree Days  
Heating Degree Days 0 0  
Month to date heating degree days 7 3  
Since 1 June heating degree days 7 3  
Since 1 July heating degree days 2962 4046  
Cooling Degree Days 19 13  
Month to date cooling degree days 292 279  
Year to date cooling degree days 671 432  
Since 1 June cooling degree days 292 279  
Growing Degree Days 34 (Base 50)    
Moisture  
Dew Point 57 °F    
Average Humidity 51    
Maximum Humidity 84    
Minimum Humidity 18    
Precipitation  
Precipitation 0.00 in 0.13 in 3.47 in (1960)
Month to date precipitation 0.65 3.94  
Year to date precipitation 18.22 25.87  
Snow  
Snow 0.00 in 0.00 in 0.00 in ()
Month to date snowfall 0.0 0.0  
Since 1 June snowfall 0.0 0.0  
Since 1 July snowfall 1.4 9.1  
Snow Depth 0.00 in    
Sea Level Pressure  
Sea Level Pressure 29.96 in    
Wind  
Wind Speed 5 mph (WSW)    
Max Wind Speed 14 mph    
Max Gust Speed 20 mph    
Visibility 10 miles    
Events      
T = Trace of Precipitation, MM = Missing Value Source: NWS Daily Summary

Daily Weather History Graph

Daily Weather History Graph

Search for Another Location

Airport or City:

Trip Planner

Search our weather history database for the weather conditions in past years. The results will help you decide how hot, cold, wet, or windy it might be!

Date:

Astronomy

Jun. 28, 2012 Rise Set
Actual Time 5:28 AM CDT 8:09 PM CDT
Civil Twilight 4:58 AM CDT 8:39 PM CDT
Nautical Twilight 4:19 AM CDT 9:18 PM CDT
Astronomical Twilight 3:36 AM CDT 10:01 PM CDT
Moon 2:47 PM CDT (6/28) 12:56 AM CDT (6/28)
Length of Visible Light 15h 41m
Length of Day
14h 40m
Waxing Gibbous, 67% of the Moon is Illuminated
Jun 28
Waxing Gibbous
Jul 3
Full
Jul 10
Last Quarter
Jul 18
New
Jul 26
First Quarter

Hourly Weather History & Observations

Time (CDT) Temp. Heat Index Dew Point Humidity Pressure Visibility Wind Dir Wind Speed Gust Speed Precip Events Conditions
12:53 AM 68.0 °F - 60.1 °F 76% 29.96 in 10.0 mi Calm Calm - N/A   Clear
1:53 AM 66.0 °F - 60.1 °F 81% 29.96 in 10.0 mi Calm Calm - N/A   Clear
2:53 AM 64.9 °F - 59.0 °F 81% 29.95 in 10.0 mi Calm Calm - 0.00 in   Clear
3:53 AM 64.0 °F - 59.0 °F 84% 29.96 in 10.0 mi Calm Calm - N/A   Clear
4:53 AM 63.0 °F - 57.9 °F 84% 29.98 in 10.0 mi Calm Calm - N/A   Clear
5:53 AM 62.1 °F - 57.9 °F 86% 30.00 in 10.0 mi Calm Calm - N/A   Clear
6:53 AM 66.9 °F - 60.1 °F 79% 30.01 in 10.0 mi Calm Calm - N/A   Clear
7:53 AM 75.9 °F - 57.0 °F 52% 30.01 in 10.0 mi SW 4.6 mph - N/A   Clear
8:53 AM 84.0 °F 83.5 °F 57.9 °F 41% 30.01 in 10.0 mi WSW 5.8 mph - N/A   Clear
9:53 AM 93.0 °F 91.7 °F 57.0 °F 30% 30.00 in 10.0 mi West 9.2 mph - N/A   Clear
10:53 AM 96.1 °F 93.5 °F 53.1 °F 23% 29.99 in 10.0 mi WSW 10.4 mph - N/A   Clear
11:53 AM 98.1 °F 96.4 °F 55.0 °F 24% 29.99 in 10.0 mi West 8.1 mph - N/A   Clear
12:53 PM 100.0 °F 99.7 °F 57.9 °F 25% 29.97 in 10.0 mi WSW 9.2 mph - N/A   Clear
1:53 PM 104.0 °F 102.9 °F 55.9 °F 20% 29.95 in 10.0 mi Variable 4.6 mph 17.3 mph N/A   Clear
2:53 PM 104.0 °F 102.9 °F 55.9 °F 20% 29.94 in 10.0 mi West 5.8 mph - N/A   Clear
3:53 PM 104.0 °F 102.9 °F 55.9 °F 20% 29.92 in 10.0 mi WSW 9.2 mph 17.3 mph N/A   Clear
4:53 PM 105.1 °F 104.4 °F 55.9 °F 20% 29.91 in 10.0 mi SW 8.1 mph - N/A   Clear
5:53 PM 104.0 °F 102.9 °F 55.0 °F 20% 29.91 in 10.0 mi SW 8.1 mph - N/A   Clear
6:53 PM 102.0 °F - 52.0 °F 19% 29.91 in 10.0 mi WSW 11.5 mph 17.3 mph N/A   Clear
7:53 PM 98.1 °F 96.4 °F 55.0 °F 24% 29.91 in 10.0 mi WSW 6.9 mph - N/A   Clear
8:53 PM 91.9 °F 90.3 °F 55.9 °F 30% 29.91 in 10.0 mi SW 4.6 mph - N/A   Clear
9:53 PM 89.1 °F 87.3 °F 55.9 °F 32% 29.92 in 10.0 mi WSW 5.8 mph - N/A   Clear
10:53 PM 87.1 °F 85.9 °F 57.0 °F 36% 29.93 in 10.0 mi WSW 6.9 mph - N/A   Clear
11:53 PM 82.0 °F 81.7 °F 57.0 °F 42% 29.94 in 10.0 mi West 3.5 mph - N/A   Clear